Paso Robles, CA

7:22 PM PST on December 11, 2019 (GMT -0800)
Paso Robles Municipal

Weather History for KPRB - October, 2019

Change the Weather History Date:

Friday, October 11, 2019

  Actual Average Record
Temperature  
Mean Temperature 61 °F 63 °F  
Max Temperature 86 °F 81 °F 98 °F (1992)
Min Temperature 36 °F 46 °F 31 °F (2008)
Degree Days  
Heating Degree Days 4 3  
Month to date heating degree days 43 29  
Since 1 July heating degree days 69 61  
Cooling Degree Days 0 1  
Month to date cooling degree days 11 25  
Year to date cooling degree days 1046 916  
Growing Degree Days 11 (Base 50)    
Moisture  
Dew Point 14 °F    
Average Humidity 24    
Maximum Humidity 55    
Minimum Humidity 3    
Precipitation  
Precipitation 0.00 in 0.01 in 0.44 in (1957)
Month to date precipitation 0.00 0.14  
Year to date precipitation 11.28 9.26  
Sea Level Pressure  
Sea Level Pressure 29.97 in    
Wind  
Wind Speed 4 mph ()    
Max Wind Speed 20 mph    
Max Gust Speed 26 mph    
Visibility 9.5 miles    
Events      
T = Trace of Precipitation, MM = Missing Value Source: Averaged Metar Reports

Daily Weather History Graph

Daily Weather History Graph

Search for Another Location

Airport or City:

Astronomy

Oct. 11, 2019 Rise Set
Actual Time 7:05 AM PDT 6:32 PM PDT
Civil Twilight 6:39 AM PDT 6:58 PM PDT
Nautical Twilight 6:10 AM PDT 7:27 PM PDT
Astronomical Twilight 5:40 AM PDT 7:57 PM PDT
Moon 5:58 PM PDT (10/11) 4:58 AM PDT (10/11)
Length of Visible Light 12h 18m
Length of Day
11h 26m
Waxing Gibbous, 96% of the Moon is Illuminated
Oct 11
Waxing Gibbous
Oct 13
Full
Oct 21
Last Quarter
Oct 27
New
Nov 4
First Quarter

Hourly Weather History & Observations

Time (PDT) Temp. Windchill Dew Point Humidity Pressure Visibility Wind Dir Wind Speed Gust Speed Precip Events Conditions
12:53 AM 46.9 °F - 25.0 °F 42% 30.00 in 10.0 mi Calm Calm - N/A   Clear
1:53 AM 46.9 °F - 23.0 °F 39% 30.00 in 10.0 mi Calm Calm - N/A   Clear
2:53 AM 46.0 °F - 21.9 °F 39% 30.00 in 10.0 mi Calm Calm - N/A   Clear
3:53 AM 41.0 °F - 19.9 °F 43% 30.00 in 10.0 mi Calm Calm - N/A   Clear
4:53 AM 42.1 °F - 23.0 °F 47% 30.01 in 10.0 mi Calm Calm - N/A   Clear
5:53 AM 39.9 °F - 23.0 °F 51% 30.02 in 10.0 mi Calm Calm - N/A   Clear
6:53 AM 37.9 °F - 23.0 °F 55% 30.03 in 10.0 mi Calm Calm - N/A   Clear
7:53 AM 37.0 °F 34.5 °F 21.9 °F 54% 30.04 in 10.0 mi SSE 3.5 mph - N/A   Clear
8:53 AM 46.9 °F - 25.0 °F 42% 30.05 in 10.0 mi Calm Calm - N/A   Clear
9:53 AM 55.9 °F - 27.0 °F 33% 30.04 in 10.0 mi Variable 3.5 mph - N/A   Clear
10:53 AM 68.0 °F - 26.1 °F 21% 30.01 in 10.0 mi North 5.8 mph - N/A   Clear
11:53 AM 78.1 °F - 14.0 °F 9% 29.99 in 10.0 mi ENE 9.2 mph - N/A   Clear
12:53 PM 82.0 °F - -2.9 °F 4% 29.96 in 4.0 mi East 8.1 mph - N/A   Haze
1:34 PM 84.0 °F - 3.9 °F 5% 29.96 in 4.0 mi ENE 16.1 mph 25.3 mph N/A   Haze
1:53 PM 82.9 °F - 6.1 °F 5% 29.93 in 10.0 mi ENE 16.1 mph - N/A   Clear
2:53 PM 84.9 °F - -6.0 °F 4% 29.91 in 10.0 mi East 16.1 mph 25.3 mph N/A   Clear
3:53 PM 82.0 °F - 1.9 °F 5% 29.91 in 10.0 mi ENE 12.7 mph - N/A   Clear
4:53 PM 80.1 °F - -2.0 °F 4% 29.90 in 10.0 mi East 15.0 mph - N/A   Clear
5:53 PM 77.0 °F - 5.0 °F 6% 29.90 in 10.0 mi East 15.0 mph - N/A   Clear
6:53 PM 71.1 °F - 6.1 °F 8% 29.90 in 10.0 mi East 10.4 mph - N/A   Clear
7:53 PM 64.9 °F - 9.0 °F 11% 29.94 in 10.0 mi West 4.6 mph - N/A   Clear
8:53 PM 66.9 °F - 8.1 °F 10% 29.94 in 10.0 mi ESE 4.6 mph - N/A   Clear
9:53 PM 54.0 °F - 14.0 °F 21% 29.96 in 10.0 mi Calm Calm - N/A   Clear
10:53 PM 51.1 °F - 12.0 °F 21% 29.96 in 10.0 mi East 3.5 mph - N/A   Clear
11:53 PM 46.9 °F - 12.9 °F 25% 29.95 in 10.0 mi Calm Calm - N/A   Clear